Погода в Улан-Холе

Россия / Республика Калмыкия     45°26′18″N   46°51′11″E
темп.,
°C
ветер,
м/с
пор.,
м/с
влажн.,
%
обл.,
%
осадки,
мм/ч
давл.,
гПа
погр.,
м
16 октября, сб
сб1600:00+13вюв46525 0.0 102086
03:00+12в4453100 0.0 102047
06:00+12всв465213 0.0 101967
09:00+17в57395 0.0 1019302
12:00+22в78265 0.0 1018806
15:00+20вюв7941100 0.0 1017601
18:00+15вюв6106874 0.0 1017286
21:00+14вюв498072 0.0 1016220
17 октября, вс
вс1700:00+14в4884100 0.0 1015161
03:00+13в47895 0.0 1014120
06:00+13вюв467318 0.0 101494
09:00+17юв697396 0.0 1014465
12:00+20юв796121 0.0 1013943
15:00+19юв896411 0.0 1012799
18:00+15юв587598 0.0 1013315
21:00+14вюв3679100 0.0 1013185
18 октября, пн
пн1800:00+14вюв1183100 0.0 101226
03:00+15ссв2379100 0.0 1012117
06:00+14ссв1181100 0.0 101220
09:00+17з337184 0.0 1013342
12:00+21сз455540 0.0 1012905
15:00+22сз5746100 0.0 10111565
18:00+19сз3552100 0.0 101269
21:00+18сз4548100 0.0 101398
19 октября, вт
вт1900:00+16зсз465899 0.0 101491
03:00+15зсз465856 0.0 1014101
06:00+13сз456182 0.0 101591
09:00+16сз45435 0.0 1016392
12:00+19зсз56355 0.0 10161140
15:00+19зсз7737100 0.0 10151606
18:00+15з5862100 0.1 1016450
21:00+13з7971100 0.9 1017761
20 октября, ср
ср2000:00+11зюз4566100 1.8 1017388
03:00+11з6869100 1.9 1016782
06:00+10зюз71075100 0.4 10171139
09:00+9сз5779100 1.9 1017698
12:00+8ссз6977100 1.0 1019987
15:00+8сз101270100 1.9 10211107
18:00+9з366456 0.1 1024217
21:00+8сз712575 0.2 1026412